RSP-01 (47925 NORAD) Tracking and Keplerian Element Data

This shows tracking and keplerian element data for the satellite.

Feedback or suggestion? Click here.




ElementValue
Catalog47925
NameRSP-01
Epoch Orbit7053
Epoch Day159.97733955
Epoch Year2022
RAAN339.3535
Inclination51.6203
Eccentricity0.0014703
Argument of Perigee285.6985
Mean Anonmoly74.2415
Mean Motion16.28293158
Decay Rate0.03925807
L11 47925U 98067SB 22159.97733955 .03925807 12084-4 94924-3 0 9998
L22 47925 51.6203 339.3535 0014703 285.6985 74.2415 16.28293158 70538



Live tracking and technical data element details for RSP-01 (NORAD 47925). RSP-01 can be tracked NOW for your location showing map with azimuth and elevation plus other details from your city location.







IsCatalogInMostPopularTable: catalog: 47925, numindb: 111
Update: records affected: 1



GetName: 47925 RSP-01

Hit Count: updated at: Fri, 02 Dec 2022 12:47:13 GMT